Weather History for KTVR - October, 2012

Change the Weather History Date:

Saturday, October 6, 2012

  Actual Average Record
Temperature  
Mean Temperature 60 °F 69 °F  
Max Temperature 69 °F 82 °F 95 °F (1954)
Min Temperature 50 °F 56 °F 36 °F (1964)
Degree Days  
Heating Degree Days 5 1  
Month to date heating degree days 13 6  
Since 1 July heating degree days 17 11  
Cooling Degree Days 0 5  
Month to date cooling degree days 11 34  
Year to date cooling degree days 2343 2131  
Growing Degree Days 8 (Base 50)    
Moisture  
Dew Point 53 °F    
Average Humidity 89    
Maximum Humidity 100    
Minimum Humidity 77    
Precipitation  
Precipitation 0.00 in 0.15 in 1.82 in (2009)
Month to date precipitation 0.45 0.79  
Year to date precipitation 44.03 40.25  
Sea Level Pressure  
Sea Level Pressure 30.10 in    
Wind  
Wind Speed 10 mph (North)    
Max Wind Speed 17 mph    
Max Gust Speed 23 mph    
Visibility 8 miles    
Events Fog    
T = Trace of Precipitation, MM = Missing Value Source: NWS Daily Summary

Daily Weather History Graph

Daily Weather History Graph

Search for Another Location

Airport or City:

Trip Planner

Search our weather history database for the weather conditions in past years. The results will help you decide how hot, cold, wet, or windy it might be!

Date:

Astronomy

Oct. 06, 2012 Rise Set
Actual Time 7:01 AM CDT 6:41 PM CDT
Civil Twilight 6:37 AM CDT 7:06 PM CDT
Nautical Twilight 6:08 AM CDT 7:34 PM CDT
Astronomical Twilight 5:40 AM CDT 8:03 PM CDT
Moon 11:12 PM CDT (10/6) 12:41 PM CDT (10/6)
Length of Visible Light 12h 29m
Length of Day
11h 39m
Waning Gibbous, 65% of the Moon is Illuminated
Oct 6
Waning Gibbous
Oct 8
Last Quarter
Oct 15
New
Oct 21
First Quarter
Oct 29
Full

Hourly Weather History & Observations

Time (CDT) Temp. Dew Point Humidity Pressure Visibility Wind Dir Wind Speed Gust Speed Precip Events Conditions
12:01 AM 62.6 °F 60.8 °F 94% 30.01 in 3.0 mi Calm Calm - N/A   Clear
12:24 AM 62.6 °F 60.8 °F 94% 30.01 in 1.8 mi Calm Calm - N/A   Clear
12:39 AM 60.8 °F 60.8 °F 100% 30.01 in 3.0 mi Calm Calm - N/A   Clear
12:53 AM 62.1 °F 62.1 °F 100% 30.03 in 4.0 mi Calm Calm - N/A   Clear
1:14 AM 62.6 °F 60.8 °F 94% 30.01 in 2.0 mi Calm Calm - N/A   Clear
1:32 AM 62.6 °F 60.8 °F 94% 30.01 in 3.0 mi Calm Calm - N/A   Clear
1:38 AM 60.8 °F 60.8 °F 100% 30.01 in 1.8 mi Calm Calm - N/A   Clear
1:53 AM 61.0 °F 60.1 °F 97% 30.03 in 0.5 mi Calm Calm - N/A Fog Fog
2:03 AM 62.6 °F 60.8 °F 94% 30.03 in 2.0 mi NNW 9.2 mph - N/A   Scattered Clouds
2:11 AM 66.2 °F 64.4 °F 94% 30.03 in 7.0 mi NNW 5.8 mph 17.3 mph N/A   Mostly Cloudy
2:53 AM 63.0 °F 61.0 °F 93% 30.06 in 10.0 mi North 16.1 mph 23.0 mph N/A   Overcast
3:17 AM 60.8 °F 59.0 °F 94% 30.05 in 10.0 mi NNE 10.4 mph - N/A   Overcast
3:53 AM 59.0 °F 57.0 °F 93% 30.07 in 10.0 mi North 11.5 mph - N/A   Overcast
4:53 AM 57.0 °F 54.0 °F 89% 30.09 in 10.0 mi North 11.5 mph 19.6 mph N/A   Overcast
5:53 AM 55.0 °F 52.0 °F 89% 30.11 in 10.0 mi North 11.5 mph 19.6 mph N/A   Overcast
6:53 AM 55.0 °F 51.1 °F 86% 30.12 in 10.0 mi North 11.5 mph - N/A   Overcast
7:53 AM 54.0 °F 50.0 °F 86% 30.14 in 10.0 mi North 10.4 mph 17.3 mph N/A   Overcast
9:45 AM 53.6 °F 48.2 °F 82% 30.15 in 10.0 mi North 13.8 mph 19.6 mph N/A   Overcast
9:53 AM 54.0 °F 48.9 °F 83% 30.17 in 10.0 mi North 13.8 mph - N/A   Overcast
10:05 AM 53.6 °F 48.2 °F 82% 30.15 in 10.0 mi North 13.8 mph 18.4 mph N/A   Overcast
10:53 AM 55.0 °F 48.9 °F 80% 30.16 in 10.0 mi NNE 9.2 mph - N/A   Overcast
11:53 AM 55.9 °F 50.0 °F 80% 30.15 in 10.0 mi NNW 8.1 mph - N/A   Overcast
12:53 PM 57.9 °F 50.0 °F 75% 30.13 in 10.0 mi North 8.1 mph - N/A   Overcast
1:53 PM 57.0 °F 50.0 °F 77% 30.13 in 10.0 mi North 8.1 mph - N/A   Overcast
2:53 PM 57.9 °F 50.0 °F 75% 30.11 in 10.0 mi NNW 6.9 mph - N/A   Overcast
3:53 PM 57.0 °F 50.0 °F 77% 30.11 in 10.0 mi North 11.5 mph - N/A   Overcast
4:53 PM 57.0 °F 50.0 °F 77% 30.11 in 10.0 mi North 11.5 mph - N/A   Overcast
5:53 PM 55.9 °F 48.9 °F 77% 30.12 in 10.0 mi North 12.7 mph - N/A   Overcast
6:53 PM 55.0 °F 48.9 °F 80% 30.13 in 10.0 mi North 12.7 mph 17.3 mph N/A   Overcast
7:53 PM 53.1 °F 46.0 °F 77% 30.14 in 10.0 mi North 12.7 mph - N/A   Overcast
8:53 PM 52.0 °F 46.9 °F 83% 30.17 in 10.0 mi North 11.5 mph - N/A   Overcast
9:37 PM 51.8 °F 48.2 °F 88% 30.16 in 8.0 mi North 10.4 mph - N/A   Overcast
9:53 PM 50.0 °F 48.0 °F 93% 30.18 in 6.0 mi North 9.2 mph - N/A   Overcast
10:09 PM 50.0 °F 48.2 °F 94% 30.16 in 6.0 mi North 9.2 mph - N/A   Overcast
10:31 PM 50.0 °F 46.4 °F 87% 30.17 in 10.0 mi North 10.4 mph - N/A   Overcast
10:53 PM 50.0 °F 46.9 °F 89% 30.19 in 10.0 mi NNE 11.5 mph - N/A   Overcast
11:39 PM 51.8 °F 46.4 °F 82% 30.15 in 10.0 mi NNE 8.1 mph - N/A   Overcast
11:53 PM 51.1 °F 46.9 °F 86% 30.18 in 10.0 mi North 8.1 mph - N/A   Overcast